[[{"header":{"parameterUnit":"m.s-1","parameterCategory":1,"la1":30.2991,"la2":30.254,"lo1":-89.0895,"lo2":-89.0444,"dy":0.0017,"dx":0.0017,"nx":28,"ny":28,"refTime":"2024-09-01T21:00:00:Z","depth":0,"parameterNumber":2,"parameterNumberName":"U-component_of_WINDS"},"data":[0,0,0,0,0,0,0,0,0,0,0,0,0,0,0,0,0,0,0,0,0,0,0,0,0,0,0,0,0,0,0,0,0,0,0,0,0,0,0,0,0,0,0,0,0,0,0,0,0,0,0,0,0,0,0,0,0,0,2.1621,2.1622,0,2.1662,2.1663,2.1663,2.1611,2.1609,2.1607,2.1605,2.1651,2.1653,2.1656,0,0,0,0,0,0,0,0,0,0,0,0,0,2.1498,2.1501,2.1621,2.1622,2.1622,2.1662,2.1663,2.1663,2.1611,2.1609,2.1606,2.1604,2.165,2.1653,2.1657,0,0,0,0,0,0,0,0,0,0,0,0,0,2.1547,2.1502,2.1621,2.1601,2.1599,2.1662,2.1663,2.1664,2.1612,2.1609,2.1606,2.1603,2.1648,2.1653,2.1657,2.1743,0,0,2.1671,2.1673,0,0,0,0,0,0,0,0,2.1544,2.1552,2.1603,2.1602,2.1601,2.1628,2.1636,2.169,2.1612,2.1607,2.1605,2.1602,2.1646,2.165,2.1664,2.1745,2.1747,2.1671,2.1674,2.1676,2.1677,0,0,0,0,0,0,0,2.1541,2.155,2.1637,2.1604,2.1603,2.159,2.1594,2.1646,2.1642,2.1607,2.1604,2.1609,2.1645,2.166,2.1665,2.1748,2.1671,2.1675,2.1678,2.168,2.1897,2.19,0,0,0,0,0,0,2.154,2.1547,2.1636,2.1639,2.1565,2.1595,2.1599,2.1622,2.1641,2.1641,2.1611,2.1606,2.1654,2.166,2.1667,2.1765,2.1676,2.168,2.1683,2.1894,2.1898,2.1901,0,0,0,0,0,0,2.1537,2.1548,2.1634,2.1592,2.1602,2.16,2.1627,2.1625,2.164,2.1644,2.1644,2.1628,2.1652,2.166,2.1723,2.1766,2.1682,2.1686,2.189,2.1895,2.1899,2.1964,0,0,0,0,0,0,2.1534,2.1548,2.158,2.1593,2.1604,2.169,2.163,2.1628,2.1648,2.1642,2.166,2.166,2.165,2.1717,2.1728,2.177,2.169,2.1886,2.1892,2.1898,2.1958,2.197,2.1981,0,0,0,0,0,2.153,2.1598,2.1582,2.1593,2.1644,2.1693,2.1699,2.1686,2.1652,2.1684,2.1686,2.166,2.176,2.1724,2.1736,2.178,2.1884,2.1891,2.1897,2.1953,2.1968,2.1981,0,0,0,0,0,0,2.1592,2.1599,2.1581,2.1656,2.1674,2.1684,2.1724,2.1702,2.1731,2.1724,2.1707,2.1712,2.1778,2.1786,2.1746,2.1863,2.1816,2.1826,2.1854,2.1869,2.188,2.1875,2.1694,0,0,0,0,0,2.1614,2.1651,2.1657,2.1722,2.1732,2.1726,2.1747,2.1735,2.1753,2.1761,2.1768,2.1787,2.1823,2.1847,2.188,2.196,2.1962,2.1997,2.2008,2.2017,2.2025,2.2064,2.2079,2.1923,2.1923,2.1923,0,0,2.166,2.1669,2.1694,2.1734,2.1747,2.1786,2.1733,2.1778,2.1806,2.1768,2.1826,2.1833,2.1853,2.1924,2.1956,2.1932,2.2068,2.2026,2.2033,2.2036,2.2073,2.2088,2.2101,2.1928,2.1927,2.1927,0,0,2.1763,2.1775,2.1829,2.1842,2.1861,2.1856,2.1869,2.1882,2.1884,2.1943,2.1913,2.1948,2.2011,2.2025,2.2041,2.2149,2.2124,2.216,2.2219,2.2258,2.227,2.228,2.2316,2.2329,2.2169,2.2169,2.2169,0,2.1819,2.1876,2.186,2.1905,2.1922,2.1888,2.1942,2.1956,2.1985,2.1998,2.1972,2.2047,2.2059,2.2131,2.2157,2.2173,2.2185,2.2157,2.2269,2.228,2.229,2.2323,2.2336,2.2173,2.2172,2.2172,2.2172,0,2.1941,2.1981,2.2023,2.2049,2.2072,2.2122,2.2113,2.2138,2.2124,2.2122,2.2181,2.2194,2.2227,2.2244,2.2232,2.2314,2.2299,2.2272,2.2224,2.2308,2.2339,2.2352,2.2178,2.2177,2.2176,2.2175,0,0,2.2084,2.2099,2.2115,2.2125,2.2142,2.2173,2.2221,2.2253,2.2273,2.2295,2.2333,2.2386,2.236,2.2378,2.2367,2.2402,2.2481,2.2369,2.2369,2.2387,2.2569,2.2587,2.2602,2.2467,2.2469,2.2471,2.2566,0,2.2184,2.2265,2.2251,2.2329,2.2364,2.2332,2.2373,2.2388,2.2388,2.2419,2.242,2.2456,2.242,2.243,2.2463,2.2465,2.2517,2.2458,2.2501,2.2502,2.2493,2.2619,2.2639,2.2728,2.2579,2.2581,2.2582,0,2.2312,2.2335,2.2417,2.2426,2.244,2.2477,2.2503,2.2534,2.255,2.2548,2.2567,2.2549,2.2596,2.255,2.2613,2.2573,2.259,2.2594,2.2597,2.2598,2.2545,2.262,2.2757,2.2769,2.2602,2.26,2.2599,0,2.2403,2.2456,2.251,2.2521,2.2534,2.256,2.2567,2.2581,2.26,2.2623,2.2635,2.2665,2.2681,2.2704,2.2695,2.2662,2.2759,2.2713,2.2757,2.2757,2.2776,2.2775,2.2914,2.2793,2.2793,2.2793,2.2792,0,2.2515,2.2565,2.2551,2.2584,2.2639,2.2623,2.2677,2.2681,2.2693,2.2726,2.2701,2.2733,2.272,2.2751,2.2744,2.2796,2.2804,2.2803,2.28,2.2803,2.2803,2.2811,2.2804,2.2796,2.2795,2.2795,2.2794,0,2.2625,2.2618,2.2674,2.2682,2.2685,2.2724,2.2731,2.2761,2.2759,2.2801,2.281,2.2807,2.2842,2.2835,2.2875,2.287,2.2934,2.2925,2.2927,2.2924,2.2967,2.2962,2.3114,2.3132,2.3003,2.3004,2.3005,0,2.2695,2.2733,2.2743,2.2762,2.2771,2.2803,2.2821,2.2807,2.2828,2.2848,2.2876,2.2908,2.2933,2.299,2.2991,2.3021,2.301,2.3062,2.3014,2.3015,2.3007,2.3003,2.3005,2.307,2.3072,2.3073,2.3074,0,2.2819,2.2813,2.284,2.2865,2.2887,2.2907,2.2924,2.2942,2.2929,2.2953,2.2987,2.3006,2.3045,2.3076,2.3103,2.3111,2.309,2.3089,2.31,2.3102,2.31,2.3098,2.2949,2.3085,2.3084,2.3083,2.3082,2.3082,2.2909,2.2939,2.295,2.298,2.2992,2.3008,2.3036,2.3036,2.3064,2.3093,2.3084,2.3122,2.3136,2.3169,2.318,2.321,2.3191,2.3208,2.3211,2.3215,2.3218,2.3098,2.3215,2.3215,2.3215,2.3215,2.3214,0,2.3029,2.3034,2.3062,2.3085,2.3108,2.3086,2.3104,2.3125,2.3158,2.3172,2.3196,2.3235,2.3265,2.3268,2.3297,2.332,2.331,2.3327,2.3324,2.3325,2.3236,2.3221,2.3334,2.3334,2.3334,2.3334,2.3334,2.3334,2.3093,2.3142,2.3137,2.3191,2.3196,2.3231,2.3243,2.3257,2.3268,2.3311,2.3335,2.3337,2.3347,2.3375,2.3402,2.3402,2.3412,2.3432,2.3428,2.3344,2.3332,2.332,2.3307,2.3435,2.3435,2.3515,2.3515,2.3516]},{"header":{"parameterUnit":"m.s-1","parameterCategory":1,"la1":30.2991,"la2":30.254,"lo1":-89.0895,"lo2":-89.0444,"dy":0.0017,"dx":0.0017,"nx":28,"ny":28,"refTime":"2024-09-01T21:00:00:Z","depth":0,"parameterNumber":3,"parameterNumberName":"V-component_of_WINDS"},"data":[0,0,0,0,0,0,0,0,0,0,0,0,0,0,0,0,0,0,0,0,0,0,0,0,0,0,0,0,0,0,0,0,0,0,0,0,0,0,0,0,0,0,0,0,0,0,0,0,0,0,0,0,0,0,0,0,0,0,-0.124,-0.1241,0,-0.1345,-0.1346,-0.1347,-0.1418,-0.1419,-0.1419,-0.142,-0.1531,-0.1533,-0.1535,0,0,0,0,0,0,0,0,0,0,0,0,0,-0.1103,-0.1105,-0.1239,-0.1241,-0.1242,-0.1345,-0.1346,-0.1348,-0.1418,-0.1419,-0.1419,-0.142,-0.153,-0.1533,-0.1536,0,0,0,0,0,0,0,0,0,0,0,0,0,-0.1181,-0.1106,-0.1239,-0.129,-0.1295,-0.1344,-0.1346,-0.1348,-0.1418,-0.1419,-0.142,-0.142,-0.1529,-0.1532,-0.1536,-0.1544,0,0,-0.1547,-0.1549,0,0,0,0,0,0,0,0,-0.1176,-0.1186,-0.1281,-0.1286,-0.1293,-0.1369,-0.1339,-0.1414,-0.1418,-0.1372,-0.142,-0.1421,-0.1476,-0.1485,-0.1503,-0.155,-0.1554,-0.1548,-0.155,-0.1552,-0.1553,0,0,0,0,0,0,0,-0.1171,-0.1181,-0.1281,-0.1282,-0.1289,-0.1308,-0.132,-0.1353,-0.1419,-0.1376,-0.1381,-0.1392,-0.148,-0.1499,-0.1506,-0.1556,-0.1548,-0.1551,-0.1553,-0.1555,-0.1617,-0.1616,0,0,0,0,0,0,-0.1157,-0.1176,-0.1278,-0.1285,-0.1235,-0.131,-0.1323,-0.1344,-0.1418,-0.1431,-0.1392,-0.1395,-0.1492,-0.1501,-0.151,-0.1526,-0.1552,-0.1555,-0.1557,-0.1617,-0.1617,-0.1616,0,0,0,0,0,0,-0.1154,-0.1165,-0.1274,-0.1232,-0.1247,-0.1312,-0.1334,-0.1346,-0.1365,-0.1431,-0.1443,-0.1399,-0.1493,-0.1505,-0.1536,-0.1531,-0.1557,-0.156,-0.1618,-0.1617,-0.1616,-0.1558,0,0,0,0,0,0,-0.1149,-0.1164,-0.1167,-0.1231,-0.1249,-0.1296,-0.1334,-0.1347,-0.1371,-0.1377,-0.1441,-0.1452,-0.1495,-0.153,-0.1539,-0.1537,-0.1563,-0.1619,-0.1618,-0.1617,-0.156,-0.1555,-0.155,0,0,0,0,0,-0.1144,-0.1146,-0.1166,-0.1178,-0.1254,-0.1296,-0.1306,-0.1354,-0.137,-0.1374,-0.1417,-0.145,-0.1529,-0.1532,-0.1544,-0.1542,-0.1619,-0.1618,-0.1617,-0.1563,-0.1556,-0.155,0,0,0,0,0,0,-0.108,-0.1156,-0.1179,-0.1202,-0.1242,-0.1308,-0.1315,-0.1345,-0.1382,-0.1386,-0.1445,-0.1459,-0.1484,-0.1516,-0.1518,-0.1555,-0.1579,-0.1579,-0.1533,-0.1528,-0.1523,-0.1515,-0.1566,0,0,0,0,0,-0.1068,-0.1095,-0.116,-0.1174,-0.1192,-0.125,-0.127,-0.1303,-0.1348,-0.1365,-0.141,-0.1452,-0.1487,-0.1509,-0.1544,-0.1565,-0.1581,-0.1569,-0.1564,-0.156,-0.156,-0.1575,-0.1572,-0.1612,-0.1612,-0.1612,0,0,-0.1045,-0.1089,-0.1103,-0.1162,-0.1197,-0.1224,-0.1264,-0.1291,-0.1312,-0.137,-0.1402,-0.1436,-0.1487,-0.1513,-0.1527,-0.154,-0.1553,-0.1558,-0.1554,-0.1557,-0.1574,-0.157,-0.1566,-0.1611,-0.1611,-0.1611,0,0,-0.1016,-0.1052,-0.1068,-0.1102,-0.1154,-0.1192,-0.1196,-0.1258,-0.1282,-0.1315,-0.1359,-0.1386,-0.1444,-0.148,-0.1505,-0.149,-0.1523,-0.15,-0.1474,-0.1488,-0.1485,-0.1483,-0.1479,-0.1477,-0.15,-0.15,-0.15,0,-0.0981,-0.1023,-0.1072,-0.1097,-0.1123,-0.1175,-0.1193,-0.1224,-0.1285,-0.1302,-0.1316,-0.1391,-0.1429,-0.1465,-0.1461,-0.148,-0.1487,-0.1494,-0.1481,-0.1479,-0.1478,-0.1475,-0.1474,-0.1497,-0.1497,-0.1498,-0.1498,0,-0.0978,-0.1006,-0.1013,-0.1071,-0.1097,-0.1118,-0.1172,-0.1192,-0.1223,-0.126,-0.1294,-0.1342,-0.1388,-0.1399,-0.143,-0.144,-0.1447,-0.147,-0.1495,-0.147,-0.1469,-0.1468,-0.1493,-0.1494,-0.1495,-0.1495,0,0,-0.0913,-0.0997,-0.0999,-0.1026,-0.1088,-0.1112,-0.1135,-0.118,-0.1198,-0.1238,-0.1261,-0.1309,-0.1331,-0.136,-0.1396,-0.1407,-0.1395,-0.143,-0.1432,-0.1423,-0.1411,-0.1394,-0.1392,-0.1416,-0.1416,-0.1416,-0.1407,0,-0.0895,-0.094,-0.0985,-0.1015,-0.1043,-0.1093,-0.1114,-0.1155,-0.119,-0.122,-0.1259,-0.1293,-0.1319,-0.1337,-0.135,-0.1393,-0.1393,-0.1394,-0.144,-0.1441,-0.1427,-0.1391,-0.1373,-0.1362,-0.1407,-0.1407,-0.1407,0,-0.0881,-0.0919,-0.095,-0.101,-0.1024,-0.1042,-0.1087,-0.1114,-0.1162,-0.1187,-0.1219,-0.1256,-0.1286,-0.1306,-0.1348,-0.1348,-0.1369,-0.1393,-0.1394,-0.1401,-0.1423,-0.1399,-0.136,-0.1359,-0.1406,-0.1406,-0.1406,0,-0.0832,-0.0891,-0.0918,-0.094,-0.101,-0.1021,-0.1051,-0.1099,-0.1124,-0.1164,-0.1181,-0.1223,-0.1247,-0.128,-0.1329,-0.1339,-0.1366,-0.1391,-0.139,-0.1388,-0.1395,-0.1394,-0.136,-0.1405,-0.1405,-0.1405,-0.1405,0,-0.0809,-0.0827,-0.0898,-0.0914,-0.0937,-0.0989,-0.101,-0.1044,-0.1087,-0.1112,-0.1158,-0.1181,-0.1242,-0.1273,-0.1311,-0.1342,-0.1352,-0.1374,-0.1384,-0.1371,-0.1368,-0.1387,-0.139,-0.1405,-0.1405,-0.1405,-0.1405,0,-0.076,-0.0807,-0.0841,-0.0904,-0.092,-0.0934,-0.0989,-0.1008,-0.1045,-0.1077,-0.1087,-0.1147,-0.1185,-0.1236,-0.1291,-0.1317,-0.1343,-0.1358,-0.1327,-0.1333,-0.133,-0.1331,-0.1309,-0.1309,-0.1351,-0.1351,-0.135,0,-0.0743,-0.0758,-0.0822,-0.0842,-0.087,-0.0902,-0.0927,-0.0979,-0.1003,-0.1059,-0.1072,-0.1114,-0.115,-0.121,-0.1259,-0.1302,-0.1319,-0.1309,-0.1326,-0.1313,-0.1322,-0.1321,-0.1324,-0.1305,-0.1304,-0.1303,-0.1303,0,-0.0708,-0.0731,-0.0764,-0.0807,-0.0835,-0.0871,-0.0909,-0.0923,-0.0984,-0.1009,-0.1049,-0.1077,-0.1133,-0.1175,-0.1224,-0.1257,-0.1291,-0.1297,-0.1299,-0.1287,-0.1269,-0.128,-0.1317,-0.1298,-0.1298,-0.1298,-0.1299,-0.1299,-0.0676,-0.0692,-0.074,-0.0776,-0.081,-0.0845,-0.0866,-0.0906,-0.094,-0.0989,-0.1018,-0.1057,-0.1106,-0.1175,-0.1206,-0.1238,-0.1251,-0.1254,-0.1255,-0.1256,-0.1252,-0.1262,-0.1247,-0.1247,-0.1248,-0.1248,-0.1248,0,-0.0645,-0.0678,-0.0711,-0.0763,-0.0792,-0.0819,-0.0863,-0.0886,-0.092,-0.0961,-0.0996,-0.1043,-0.1084,-0.1136,-0.1181,-0.1197,-0.1214,-0.1207,-0.1207,-0.1215,-0.1237,-0.1231,-0.1193,-0.1193,-0.1193,-0.1193,-0.1193,-0.1193,-0.0632,-0.0662,-0.069,-0.0737,-0.0771,-0.0809,-0.0832,-0.0865,-0.0898,-0.0948,-0.0982,-0.1015,-0.1061,-0.111,-0.115,-0.1164,-0.1179,-0.1168,-0.1187,-0.1208,-0.1213,-0.1218,-0.1213,-0.1171,-0.1171,-0.1163,-0.1163,-0.1163]}]]